| time (UTC) | temp F | wind direction | speed MPH | gust MPH | rain 1hr in | rain 24hr in | rain mn in | humidity % | barometer mb |
| 20260904100503 | 74 | 156 | 1.0 | 2.0 | 0.00 | 0.00 | 0.00 | 88 | 1016.8 |
| 20260904100003 | 74 | 0 | 0.0 | 2.0 | 0.00 | 0.00 | 0.00 | 88 | 1016.6 |
| 20260904095503 | 74 | 156 | 0.0 | 2.0 | 0.00 | 0.00 | 0.00 | 88 | 1016.7 |
| 20260904095024 | 74 | 156 | 1.0 | 2.0 | 0.00 | 0.00 | 0.00 | 87 | 1016.7 |
| 20260904094503 | 75 | 0 | 0.0 | 2.0 | 0.00 | 0.00 | 0.00 | 87 | 1016.6 |
| 20260904094003 | 75 | 156 | 1.0 | 3.0 | 0.00 | 0.00 | 0.00 | 87 | 1016.6 |
| 20260904093504 | 75 | 0 | 0.0 | 5.0 | 0.00 | 0.00 | 0.00 | 87 | 1016.5 |
| 20260904093003 | 75 | 156 | 2.0 | 6.0 | 0.00 | 0.00 | 0.00 | 86 | 1016.6 |
| 20260904092504 | 75 | 155 | 3.0 | 6.0 | 0.00 | 0.00 | 0.00 | 87 | 1016.5 |
| 20260904092003 | 75 | 181 | 2.0 | 4.0 | 0.00 | 0.00 | 0.00 | 87 | 1016.5 |
| 20260904091503 | 75 | 181 | 2.0 | 3.0 | 0.00 | 0.00 | 0.00 | 87 | 1016.5 |
| 20260904091025 | 75 | 181 | 2.0 | 2.0 | 0.00 | 0.00 | 0.00 | 87 | 1016.5 |
| 20260904090504 | 75 | 181 | 0.0 | 2.0 | 0.00 | 0.00 | 0.00 | 87 | 1016.4 |
| 20260904090003 | 75 | 181 | 0.0 | 4.0 | 0.00 | 0.00 | 0.00 | 87 | 1016.5 |
| 20260904085503 | 75 | 0 | 0.0 | 4.0 | 0.00 | 0.00 | 0.00 | 87 | 1016.4 |
| 20260904085003 | 75 | 184 | 2.0 | 5.0 | 0.00 | 0.00 | 0.00 | 86 | 1016.4 |
| 20260904084503 | 75 | 176 | 2.0 | 5.0 | 0.00 | 0.00 | 0.00 | 86 | 1016.4 |
| 20260904084003 | 75 | 200 | 1.0 | 3.0 | 0.00 | 0.00 | 0.00 | 86 | 1016.3 |
| 20260904083504 | 75 | 200 | 1.0 | 2.0 | 0.00 | 0.00 | 0.00 | 86 | 1016.3 |
| 20260904083025 | 75 | 253 | 0.0 | 1.0 | 0.00 | 0.00 | 0.00 | 86 | 1016.4 |
| 20260904082504 | 75 | 253 | 0.0 | 2.0 | 0.00 | 0.00 | 0.00 | 86 | 1016.3 |
| 20260904082025 | 75 | 253 | 0.0 | 2.0 | 0.00 | 0.00 | 0.00 | 86 | 1016.3 |
| 20260904081524 | 76 | 253 | 0.0 | 3.0 | 0.00 | 0.00 | 0.00 | 86 | 1016.3 |
| 20260904081025 | 76 | 253 | 1.0 | 3.0 | 0.00 | 0.00 | 0.00 | 84 | 1016.4 |
| 20260904080504 | 76 | 253 | 0.0 | 2.0 | 0.00 | 0.00 | 0.00 | 84 | 1016.4 |
| 20260904080004 | 76 | 253 | 0.0 | 2.0 | 0.00 | 0.00 | 0.00 | 84 | 1016.3 |
| 20260904075503 | 76 | 253 | 0.0 | 2.0 | 0.00 | 0.00 | 0.00 | 84 | 1016.4 |
| 20260904075003 | 76 | 253 | 0.0 | 2.0 | 0.00 | 0.00 | 0.00 | 84 | 1016.4 |
| 20260904074504 | 76 | 253 | 0.0 | 2.0 | 0.00 | 0.00 | 0.00 | 83 | 1016.3 |
| 20260904074024 | 76 | 269 | 0.0 | 2.0 | 0.00 | 0.00 | 0.00 | 83 | 1016.4 |
| 20260904073525 | 76 | 269 | 0.0 | 2.0 | 0.00 | 0.00 | 0.00 | 83 | 1016.4 |
| 20260904073004 | 76 | 0 | 0.0 | 4.0 | 0.00 | 0.00 | 0.00 | 83 | 1016.4 |
| 20260904072504 | 77 | 269 | 0.0 | 4.0 | 0.00 | 0.00 | 0.00 | 83 | 1016.4 |
| 20260904072003 | 77 | 0 | 0.0 | 2.0 | 0.00 | 0.00 | 0.00 | 82 | 1016.4 |
| 20260904071504 | 77 | 153 | 1.0 | 5.0 | 0.00 | 0.00 | 0.00 | 82 | 1016.5 |
| 20260904071023 | 77 | 153 | 2.0 | 5.0 | 0.00 | 0.00 | 0.00 | 82 | 1016.4 |
| 20260904070502 | 77 | 153 | 2.0 | 3.0 | 0.00 | 0.00 | 0.00 | 82 | 1016.3 |
| 20260904070002 | 77 | 209 | 2.0 | 3.0 | 0.00 | 0.00 | 0.00 | 82 | 1016.4 |
| 20260904065503 | 77 | 209 | 1.0 | 3.0 | 0.00 | 0.00 | 0.00 | 82 | 1016.4 |
| 20260904065002 | 77 | 0 | 0.0 | 1.0 | 0.00 | 0.00 | 0.00 | 81 | 1016.6 |
| 20260904064524 | 77 | 0 | 0.0 | 2.0 | 0.00 | 0.00 | 0.00 | 81 | 1016.7 |
| 20260904064023 | 77 | 209 | 0.0 | 3.0 | 0.00 | 0.00 | 0.00 | 81 | 1016.6 |
| 20260904063502 | 78 | 209 | 1.0 | 3.0 | 0.00 | 0.00 | 0.00 | 81 | 1016.7 |
| 20260904063002 | 78 | 209 | 0.0 | 3.0 | 0.00 | 0.00 | 0.00 | 79 | 1016.6 |
| 20260904062502 | 78 | 209 | 1.0 | 3.0 | 0.00 | 0.00 | 0.00 | 79 | 1016.8 |
| 20260904062002 | 78 | 209 | 0.0 | 5.0 | 0.00 | 0.00 | 0.00 | 79 | 1016.8 |
| 20260904061502 | 78 | 209 | 1.0 | 5.0 | 0.00 | 0.00 | 0.00 | 78 | 1016.8 |
| 20260904061003 | 78 | 188 | 1.0 | 5.0 | 0.00 | 0.00 | 0.00 | 78 | 1016.9 |
| 20260904060502 | 79 | 186 | 1.0 | 2.0 | 0.00 | 0.00 | 0.00 | 78 | 1016.9 |
| 20260904060023 | 79 | 186 | 1.0 | 3.0 | 0.00 | 0.00 | 0.00 | 77 | 1016.9 |
| 20260904055503 | 79 | 186 | 0.0 | 6.0 | 0.00 | 0.00 | 0.00 | 77 | 1016.9 |
| 20260904055002 | 79 | 195 | 2.0 | 7.0 | 0.00 | 0.00 | 0.00 | 76 | 1017.0 |
| 20260904054502 | 79 | 150 | 3.0 | 7.0 | 0.00 | 0.00 | 0.00 | 76 | 1017.0 |
| 20260904054002 | 80 | 153 | 2.0 | 6.0 | 0.00 | 0.00 | 0.00 | 76 | 1017.1 |
| 20260904053503 | 80 | 134 | 3.0 | 6.0 | 0.00 | 0.00 | 0.00 | 76 | 1017.0 |
| 20260904053024 | 80 | 222 | 1.0 | 4.0 | 0.00 | 0.00 | 0.00 | 76 | 1017.0 |
| 20260904052502 | 80 | 169 | 2.0 | 4.0 | 0.00 | 0.00 | 0.00 | 76 | 1017.1 |
| 20260904052002 | 80 | 195 | 2.0 | 4.0 | 0.00 | 0.00 | 0.00 | 76 | 1017.1 |
| 20260904051502 | 80 | 168 | 2.0 | 4.0 | 0.00 | 0.00 | 0.00 | 76 | 1017.2 |
| 20260904051002 | 80 | 129 | 2.0 | 5.0 | 0.00 | 0.00 | 0.00 | 76 | 1017.2 |
| 20260904050503 | 80 | 125 | 1.0 | 6.0 | 0.00 | 0.00 | 0.00 | 76 | 1017.2 |
| 20260904050023 | 80 | 157 | 1.0 | 6.0 | 0.00 | 0.00 | 0.00 | 76 | 1017.2 |
| 20260904045503 | 81 | 168 | 2.0 | 6.0 | 0.00 | 0.00 | 0.00 | 75 | 1017.2 |
| 20260904045002 | 81 | 125 | 2.0 | 5.0 | 0.00 | 0.00 | 0.00 | 75 | 1017.3 |
| 20260904044502 | 81 | 225 | 2.0 | 7.0 | 0.00 | 0.00 | 0.00 | 75 | 1017.3 |
| 20260904044002 | 81 | 175 | 2.0 | 7.0 | 0.00 | 0.00 | 0.00 | 74 | 1017.3 |
| 20260904043503 | 81 | 146 | 3.0 | 7.0 | 0.00 | 0.00 | 0.00 | 74 | 1017.2 |
| 20260904043003 | 81 | 153 | 2.0 | 7.0 | 0.00 | 0.00 | 0.00 | 75 | 1017.3 |
| 20260904042502 | 81 | 155 | 2.0 | 7.0 | 0.00 | 0.00 | 0.00 | 76 | 1017.3 |
| 20260904042002 | 81 | 166 | 2.0 | 7.0 | 0.00 | 0.00 | 0.00 | 77 | 1017.2 |
| 20260904041524 | 81 | 137 | 2.0 | 6.0 | 0.00 | 0.00 | 0.00 | 76 | 1017.2 |
| 20260904041003 | 81 | 131 | 2.0 | 6.0 | 0.00 | 0.00 | 0.00 | 76 | 1017.1 |
| 20260904040503 | 82 | 127 | 1.0 | 6.0 | 0.00 | 0.00 | 0.00 | 75 | 1017.2 |
| 20260904040002 | 82 | 152 | 3.0 | 7.0 | 0.00 | 0.00 | 0.00 | 74 | 1017.1 |
| 20260904035502 | 82 | 167 | 4.0 | 7.0 | 0.00 | 0.00 | 0.00 | 74 | 1017.2 |
| 20260904035002 | 82 | 166 | 2.0 | 7.0 | 0.00 | 0.00 | 0.00 | 74 | 1017.2 |
| 20260904034502 | 82 | 159 | 3.0 | 7.0 | 0.00 | 0.00 | 0.00 | 74 | 1017.2 |
| 20260904034002 | 82 | 156 | 4.0 | 7.0 | 0.00 | 0.00 | 0.00 | 75 | 1017.2 |
| 20260904033502 | 81 | 160 | 4.0 | 7.0 | 0.00 | 0.00 | 0.00 | 76 | 1017.3 |
| 20260904033002 | 81 | 169 | 2.0 | 6.0 | 0.00 | 0.00 | 0.00 | 77 | 1017.4 |
| 20260904032503 | 81 | 156 | 3.0 | 5.0 | 0.00 | 0.00 | 0.00 | 77 | 1017.4 |
| 20260904032003 | 81 | 150 | 2.0 | 7.0 | 0.00 | 0.00 | 0.00 | 77 | 1017.3 |
| 20260904031523 | 81 | 158 | 3.0 | 7.0 | 0.00 | 0.00 | 0.00 | 77 | 1017.3 |
| 20260904031002 | 81 | 164 | 2.0 | 5.0 | 0.00 | 0.00 | 0.00 | 77 | 1017.3 |
| 20260904030502 | 81 | 165 | 2.0 | 5.0 | 0.00 | 0.00 | 0.00 | 77 | 1017.3 |
| 20260904030002 | 81 | 165 | 0.0 | 2.0 | 0.00 | 0.00 | 0.00 | 77 | 1017.3 |
| 20260904025503 | 81 | 0 | 0.0 | 1.0 | 0.00 | 0.00 | 0.00 | 77 | 1017.4 |
| 20260904025003 | 81 | 0 | 0.0 | 0.0 | 0.00 | 0.00 | 0.00 | 76 | 1017.5 |
| 20260904024503 | 82 | 0 | 0.0 | 2.0 | 0.00 | 0.00 | 0.00 | 76 | 1017.4 |
| 20260904024002 | 82 | 0 | 0.0 | 2.0 | 0.00 | 0.00 | 0.00 | 75 | 1017.5 |
| 20260904023502 | 82 | 165 | 0.0 | 2.0 | 0.00 | 0.00 | 0.00 | 75 | 1017.5 |
| 20260904023002 | 82 | 165 | 1.0 | 2.0 | 0.00 | 0.00 | 0.00 | 74 | 1017.4 |
| 20260904022524 | 82 | 165 | 0.0 | 2.0 | 0.00 | 0.00 | 0.00 | 74 | 1017.4 |
| 20260904022003 | 82 | 165 | 0.0 | 2.0 | 0.00 | 0.00 | 0.00 | 74 | 1017.5 |
| 20260904021502 | 82 | 165 | 2.0 | 2.0 | 0.00 | 0.00 | 0.00 | 72 | 1017.5 |
| 20260904021003 | 82 | 165 | 1.0 | 2.0 | 0.00 | 0.00 | 0.00 | 72 | 1017.6 |
| 20260904020504 | 82 | 165 | 1.0 | 2.0 | 0.00 | 0.00 | 0.00 | 72 | 1017.5 |
| 20260904020002 | 82 | 165 | 1.0 | 2.0 | 0.00 | 0.00 | 0.00 | 71 | 1017.3 |
| 20260904015502 | 82 | 0 | 0.0 | 0.0 | 0.00 | 0.00 | 0.00 | 71 | 1017.2 |
| 20260904015002 | 82 | 0 | 0.0 | 0.0 | 0.00 | 0.00 | 0.00 | 71 | 1017.2 |
| 20260904014502 | 83 | 0 | 0.0 | 2.0 | 0.00 | 0.00 | 0.00 | 71 | 1017.2 |
| 20260904014002 | 83 | 0 | 0.0 | 2.0 | 0.00 | 0.00 | 0.00 | 70 | 1017.1 |
| 20260904013502 | 83 | 165 | 1.0 | 2.0 | 0.00 | 0.00 | 0.00 | 69 | 1017.1 |
| 20260904013002 | 83 | 0 | 0.0 | 0.0 | 0.00 | 0.00 | 0.00 | 69 | 1017.0 |
| 20260904012502 | 83 | 0 | 0.0 | 0.0 | 0.00 | 0.00 | 0.00 | 69 | 1016.9 |
| 20260904012024 | 84 | 0 | 0.0 | 1.0 | 0.00 | 0.00 | 0.00 | 68 | 1016.8 |
| 20260904011503 | 84 | 0 | 0.0 | 2.0 | 0.00 | 0.00 | 0.00 | 68 | 1016.6 |
| 20260904011002 | 84 | 0 | 0.0 | 2.0 | 0.00 | 0.00 | 0.00 | 67 | 1016.5 |
| 20260904010502 | 84 | 165 | 1.0 | 2.0 | 0.00 | 0.00 | 0.00 | 65 | 1016.4 |
| 20260904010024 | 85 | 165 | 0.0 | 2.0 | 0.00 | 0.00 | 0.00 | 65 | 1016.4 |
| 20260904005524 | 85 | 165 | 0.0 | 1.0 | 0.00 | 0.00 | 0.00 | 64 | 1016.3 |
| 20260904005002 | 85 | 0 | 0.0 | 0.0 | 0.00 | 0.00 | 0.00 | 64 | 1016.3 |
| 20260904004523 | 85 | 0 | 0.0 | 2.0 | 0.00 | 0.00 | 0.00 | 64 | 1016.1 |
| 20260904004003 | 85 | 165 | 0.0 | 2.0 | 0.00 | 0.00 | 0.00 | 64 | 1016.1 |
| 20260904003503 | 85 | 165 | 0.0 | 2.0 | 0.00 | 0.00 | 0.00 | 64 | 1016.1 |
| 20260904003002 | 85 | 0 | 0.0 | 0.0 | 0.00 | 0.00 | 0.00 | 64 | 1016.1 |
| 20260904002502 | 85 | 0 | 0.0 | 1.0 | 0.00 | 0.00 | 0.00 | 64 | 1016.1 |
| 20260904002003 | 86 | 0 | 0.0 | 1.0 | 0.00 | 0.00 | 0.00 | 63 | 1015.9 |
| 20260904001502 | 86 | 0 | 0.0 | 1.0 | 0.00 | 0.00 | 0.00 | 62 | 1015.8 |
| 20260904001004 | 86 | 165 | 0.0 | 1.0 | 0.00 | 0.00 | 0.00 | 61 | 1015.7 |
| 20260904000502 | 86 | 165 | 0.0 | 1.0 | 0.00 | 0.00 | 0.00 | 61 | 1015.6 |
| 20260904000003 | 86 | 0 | 0.0 | 2.0 | 0.00 | 0.00 | 0.00 | 61 | 1015.5 |
| 20260903235502 | 87 | 0 | 0.0 | 2.0 | 0.00 | 0.00 | 0.00 | 61 | 1015.4 |
| 20260903235003 | 87 | 165 | 0.0 | 3.0 | 0.00 | 0.00 | 0.00 | 60 | 1015.5 |
| 20260903234502 | 88 | 165 | 1.0 | 4.0 | 0.00 | 0.00 | 0.00 | 59 | 1015.5 |
| 20260903234002 | 89 | 165 | 2.0 | 6.0 | 0.00 | 0.00 | 0.00 | 58 | 1015.4 |
| 20260903233524 | 89 | 163 | 3.0 | 6.0 | 0.00 | 0.00 | 0.00 | 56 | 1015.3 |
| 20260903233023 | 89 | 134 | 2.0 | 5.0 | 0.00 | 0.00 | 0.00 | 57 | 1015.3 |
| 20260903232503 | 90 | 151 | 2.0 | 7.0 | 0.00 | 0.00 | 0.00 | 55 | 1015.3 |
| 20260903232002 | 91 | 102 | 2.0 | 7.0 | 0.00 | 0.00 | 0.00 | 53 | 1015.3 |
| 20260903231504 | 91 | 153 | 2.0 | 7.0 | 0.00 | 0.00 | 0.00 | 52 | 1015.3 |
| 20260903231003 | 92 | 173 | 4.0 | 7.0 | 0.00 | 0.00 | 0.00 | 50 | 1015.3 |
| 20260903230503 | 92 | 162 | 3.0 | 8.0 | 0.00 | 0.00 | 0.00 | 50 | 1015.3 |
| 20260903230003 | 92 | 180 | 3.0 | 8.0 | 0.00 | 0.00 | 0.00 | 50 | 1015.2 |
| 20260903225503 | 92 | 165 | 3.0 | 8.0 | 0.00 | 0.00 | 0.00 | 51 | 1015.3 |
| 20260903225002 | 92 | 160 | 3.0 | 8.0 | 0.00 | 0.00 | 0.00 | 50 | 1015.3 |
| 20260903224503 | 93 | 196 | 3.0 | 9.0 | 0.00 | 0.00 | 0.00 | 49 | 1015.3 |
| 20260903224003 | 93 | 167 | 3.0 | 9.0 | 0.00 | 0.00 | 0.00 | 50 | 1015.3 |
| 20260903223525 | 93 | 163 | 5.0 | 9.0 | 0.00 | 0.00 | 0.00 | 50 | 1015.4 |
| 20260903223002 | 93 | 183 | 5.0 | 11.0 | 0.00 | 0.00 | 0.00 | 49 | 1015.4 |
| 20260903222524 | 93 | 174 | 4.0 | 11.0 | 0.00 | 0.00 | 0.00 | 49 | 1015.4 |
| 20260903222003 | 93 | 164 | 6.0 | 11.0 | 0.00 | 0.00 | 0.00 | 49 | 1015.4 |
| 20260903221502 | 93 | 156 | 6.0 | 11.0 | 0.00 | 0.00 | 0.00 | 49 | 1015.5 |
| 20260903221003 | 94 | 151 | 2.0 | 12.0 | 0.00 | 0.00 | 0.00 | 49 | 1015.4 |
| 20260903220524 | 94 | 185 | 4.0 | 12.0 | 0.00 | 0.00 | 0.00 | 48 | 1015.4 |
| 20260903220002 | 94 | 164 | 5.0 | 9.0 | 0.00 | 0.00 | 0.00 | 49 | 1015.4 |
| 20260903215525 | 94 | 158 | 5.0 | 9.0 | 0.00 | 0.00 | 0.00 | 49 | 1015.5 |
| 20260903215025 | 94 | 175 | 6.0 | 14.0 | 0.00 | 0.00 | 0.00 | 49 | 1015.5 |
| 20260903214504 | 94 | 146 | 6.0 | 14.0 | 0.00 | 0.00 | 0.00 | 49 | 1015.5 |
| 20260903214002 | 94 | 167 | 9.0 | 14.0 | 0.00 | 0.00 | 0.00 | 49 | 1015.4 |
| 20260903213524 | 94 | 153 | 4.0 | 7.0 | 0.00 | 0.00 | 0.00 | 48 | 1015.4 |
| 20260903213003 | 94 | 176 | 2.0 | 4.0 | 0.00 | 0.00 | 0.00 | 47 | 1015.5 |
| 20260903212525 | 94 | 167 | 2.0 | 4.0 | 0.00 | 0.00 | 0.00 | 46 | 1015.5 |
| 20260903212004 | 94 | 188 | 0.0 | 2.0 | 0.00 | 0.00 | 0.00 | 47 | 1015.5 |
| 20260903211523 | 95 | 191 | 1.0 | 2.0 | 0.00 | 0.00 | 0.00 | 47 | 1015.5 |
| 20260903211003 | 95 | 191 | 1.0 | 4.0 | 0.00 | 0.00 | 0.00 | 44 | 1015.5 |
| 20260903210504 | 96 | 94 | 1.0 | 6.0 | 0.00 | 0.00 | 0.00 | 45 | 1015.4 |
| 20260903210003 | 96 | 36 | 2.0 | 7.0 | 0.00 | 0.00 | 0.00 | 43 | 1015.5 |
| 20260903205502 | 97 | 30 | 3.0 | 7.0 | 0.00 | 0.00 | 0.00 | 42 | 1015.5 |
| 20260903205003 | 97 | 42 | 2.0 | 8.0 | 0.00 | 0.00 | 0.00 | 42 | 1015.5 |
| 20260903204504 | 98 | 154 | 3.0 | 9.0 | 0.00 | 0.00 | 0.00 | 44 | 1015.5 |
| 20260903204003 | 98 | 183 | 5.0 | 9.0 | 0.00 | 0.00 | 0.00 | 42 | 1015.6 |
| 20260903203524 | 97 | 193 | 2.0 | 7.0 | 0.00 | 0.00 | 0.00 | 43 | 1015.6 |
| 20260903203025 | 96 | 13 | 1.0 | 7.0 | 0.00 | 0.00 | 0.00 | 45 | 1015.6 |
| 20260903202525 | 95 | 200 | 1.0 | 7.0 | 0.00 | 0.00 | 0.00 | 47 | 1015.7 |
| 20260903202004 | 95 | 189 | 4.0 | 7.0 | 0.00 | 0.00 | 0.00 | 44 | 1015.9 |
| 20260903201503 | 96 | 167 | 1.0 | 6.0 | 0.00 | 0.00 | 0.00 | 43 | 1016.0 |
| 20260903201003 | 97 | 165 | 3.0 | 6.0 | 0.00 | 0.00 | 0.00 | 42 | 1016.0 |
| 20260903200503 | 95 | 174 | 2.0 | 7.0 | 0.00 | 0.00 | 0.00 | 48 | 1016.0 |
| 20260903200003 | 94 | 131 | 3.0 | 7.0 | 0.00 | 0.00 | 0.00 | 46 | 1016.1 |
| 20260903195504 | 95 | 158 | 1.0 | 5.0 | 0.00 | 0.00 | 0.00 | 45 | 1016.1 |
| 20260903195004 | 96 | 158 | 1.0 | 6.0 | 0.00 | 0.00 | 0.00 | 43 | 1016.2 |
| 20260903194503 | 98 | 150 | 1.0 | 7.0 | 0.00 | 0.00 | 0.00 | 41 | 1016.2 |
| 20260903194002 | 99 | 139 | 3.0 | 12.0 | 0.00 | 0.00 | 0.00 | 41 | 1016.4 |
| 20260903193504 | 100 | 155 | 2.0 | 12.0 | 0.00 | 0.00 | 0.00 | 40 | 1016.5 |
| 20260903193003 | 100 | 176 | 7.0 | 12.0 | 0.00 | 0.00 | 0.00 | 42 | 1016.4 |
| 20260903192502 | 99 | 8 | 2.0 | 5.0 | 0.00 | 0.00 | 0.00 | 40 | 1016.4 |
| 20260903192003 | 99 | 10 | 2.0 | 3.0 | 0.00 | 0.00 | 0.00 | 41 | 1016.5 |
| 20260903191524 | 99 | 212 | 1.0 | 8.0 | 0.00 | 0.00 | 0.00 | 42 | 1016.6 |
| 20260903191003 | 98 | 178 | 2.0 | 8.0 | 0.00 | 0.00 | 0.00 | 41 | 1016.5 |
| 20260903190503 | 97 | 97 | 3.0 | 6.0 | 0.00 | 0.00 | 0.00 | 45 | 1016.6 |
| 20260903190003 | 96 | 4 | 2.0 | 7.0 | 0.00 | 0.00 | 0.00 | 43 | 1016.7 |
| 20260903185504 | 97 | 16 | 2.0 | 7.0 | 0.00 | 0.00 | 0.00 | 43 | 1016.9 |
| 20260903185024 | 98 | 168 | 4.0 | 7.0 | 0.00 | 0.00 | 0.00 | 42 | 1016.9 |
| 20260903184504 | 97 | 161 | 4.0 | 7.0 | 0.00 | 0.00 | 0.00 | 43 | 1016.9 |
| 20260903184003 | 97 | 156 | 4.0 | 10.0 | 0.00 | 0.00 | 0.00 | 44 | 1017.0 |
| 20260903183504 | 97 | 124 | 3.0 | 10.0 | 0.00 | 0.00 | 0.00 | 45 | 1016.9 |
| 20260903183003 | 96 | 29 | 2.0 | 9.0 | 0.00 | 0.00 | 0.00 | 46 | 1016.9 |
| 20260903182503 | 96 | 37 | 7.0 | 9.0 | 0.00 | 0.00 | 0.00 | 42 | 1017.0 |
| 20260903182004 | 96 | 170 | 3.0 | 7.0 | 0.00 | 0.00 | 0.00 | 44 | 1017.1 |
| 20260903181503 | 95 | 138 | 2.0 | 5.0 | 0.00 | 0.00 | 0.00 | 45 | 1017.1 |
| 20260903181002 | 96 | 191 | 2.0 | 8.0 | 0.00 | 0.00 | 0.00 | 44 | 1017.2 |
| 20260903180525 | 97 | 48 | 3.0 | 8.0 | 0.00 | 0.00 | 0.00 | 45 | 1017.1 |
| 20260903180003 | 97 | 342 | 2.0 | 10.0 | 0.00 | 0.00 | 0.00 | 42 | 1017.1 |
| 20260903175503 | 98 | 19 | 6.0 | 10.0 | 0.00 | 0.00 | 0.00 | 43 | 1017.1 |
| 20260903175004 | 98 | 7 | 4.0 | 11.0 | 0.00 | 0.00 | 0.00 | 45 | 1017.2 |
| 20260903174503 | 96 | 13 | 4.0 | 11.0 | 0.00 | 0.00 | 0.00 | 46 | 1017.2 |
| 20260903174003 | 96 | 74 | 2.0 | 7.0 | 0.00 | 0.00 | 0.00 | 42 | 1017.2 |
| 20260903173525 | 97 | 30 | 2.0 | 7.0 | 0.00 | 0.00 | 0.00 | 42 | 1017.3 |
| 20260903173004 | 96 | 24 | 4.0 | 7.0 | 0.00 | 0.00 | 0.00 | 45 | 1017.4 |
| 20260903172503 | 97 | 20 | 2.0 | 10.0 | 0.00 | 0.00 | 0.00 | 45 | 1017.4 |
| 20260903172003 | 96 | 45 | 4.0 | 12.0 | 0.00 | 0.00 | 0.00 | 45 | 1017.5 |
| 20260903171503 | 95 | 21 | 6.0 | 12.0 | 0.00 | 0.00 | 0.00 | 50 | 1017.6 |
| 20260903171004 | 95 | 7 | 5.0 | 10.0 | 0.00 | 0.00 | 0.00 | 48 | 1017.7 |
| 20260903170504 | 95 | 21 | 3.0 | 10.0 | 0.00 | 0.00 | 0.00 | 48 | 1017.7 |
| 20260903170003 | 96 | 24 | 3.0 | 8.0 | 0.00 | 0.00 | 0.00 | 47 | 1018.0 |
| 20260903165503 | 96 | 13 | 2.0 | 8.0 | 0.00 | 0.00 | 0.00 | 47 | 1018.0 |
| 20260903165004 | 96 | 360 | 3.0 | 9.0 | 0.00 | 0.00 | 0.00 | 45 | 1018.1 |
| 20260903164503 | 96 | 16 | 4.0 | 9.0 | 0.00 | 0.00 | 0.00 | 46 | 1018.1 |
| 20260903164003 | 95 | 80 | 2.0 | 7.0 | 0.00 | 0.00 | 0.00 | 46 | 1018.2 |
| 20260903163523 | 95 | 162 | 5.0 | 9.0 | 0.00 | 0.00 | 0.00 | 46 | 1018.2 |
| 20260903163003 | 95 | 27 | 6.0 | 11.0 | 0.00 | 0.00 | 0.00 | 49 | 1018.3 |
| 20260903162503 | 96 | 23 | 6.0 | 11.0 | 0.00 | 0.00 | 0.00 | 48 | 1018.2 |
| 20260903162002 | 95 | 203 | 2.0 | 10.0 | 0.00 | 0.00 | 0.00 | 48 | 1018.3 |
| 20260903161503 | 95 | 3 | 2.0 | 12.0 | 0.00 | 0.00 | 0.00 | 47 | 1018.3 |
| 20260903161003 | 95 | 23 | 8.0 | 12.0 | 0.00 | 0.00 | 0.00 | 46 | 1018.4 |
| 20260903160504 | 94 | 11 | 6.0 | 9.0 | 0.00 | 0.00 | 0.00 | 49 | 1018.4 |
| 20260903160004 | 94 | 37 | 5.0 | 9.0 | 0.00 | 0.00 | 0.00 | 45 | 1018.4 |
| 20260903155503 | 94 | 126 | 3.0 | 7.0 | 0.00 | 0.00 | 0.00 | 53 | 1018.4 |
| 20260903155024 | 93 | 27 | 3.0 | 7.0 | 0.00 | 0.00 | 0.00 | 49 | 1018.4 |
| 20260903154503 | 93 | 47 | 3.0 | 7.0 | 0.00 | 0.00 | 0.00 | 48 | 1018.4 |
| 20260903154003 | 94 | 13 | 3.0 | 8.0 | 0.00 | 0.00 | 0.00 | 50 | 1018.4 |
| 20260903153504 | 93 | 16 | 5.0 | 8.0 | 0.00 | 0.00 | 0.00 | 53 | 1018.5 |
| 20260903153024 | 93 | 43 | 4.0 | 7.0 | 0.00 | 0.00 | 0.00 | 50 | 1018.5 |
| 20260903152503 | 93 | 37 | 2.0 | 7.0 | 0.00 | 0.00 | 0.00 | 57 | 1018.5 |
| 20260903152024 | 92 | 29 | 4.0 | 7.0 | 0.00 | 0.00 | 0.00 | 57 | 1018.5 |
| 20260903151503 | 92 | 8 | 3.0 | 7.0 | 0.00 | 0.00 | 0.00 | 60 | 1018.5 |
| 20260903151024 | 92 | 5 | 4.0 | 7.0 | 0.00 | 0.00 | 0.00 | 57 | 1018.4 |
| 20260903150504 | 90 | 46 | 2.0 | 7.0 | 0.00 | 0.00 | 0.00 | 60 | 1018.5 |
| 20260903150003 | 90 | 65 | 2.0 | 8.0 | 0.00 | 0.00 | 0.00 | 60 | 1018.5 |
| 20260903145524 | 90 | 34 | 2.0 | 8.0 | 0.00 | 0.00 | 0.00 | 61 | 1018.4 |
| 20260903145003 | 90 | 10 | 4.0 | 7.0 | 0.00 | 0.00 | 0.00 | 63 | 1018.4 |
| 20260903144503 | 89 | 11 | 2.0 | 7.0 | 0.00 | 0.00 | 0.00 | 62 | 1018.4 |
| 20260903144004 | 89 | 8 | 2.0 | 7.0 | 0.00 | 0.00 | 0.00 | 63 | 1018.3 |
| 20260903143503 | 89 | 354 | 1.0 | 7.0 | 0.00 | 0.00 | 0.00 | 63 | 1018.3 |
| 20260903143003 | 89 | 354 | 1.0 | 7.0 | 0.00 | 0.00 | 0.00 | 63 | 1018.3 |
| 20260903142503 | 89 | 18 | 2.0 | 6.0 | 0.00 | 0.00 | 0.00 | 62 | 1018.3 |
| 20260903142004 | 88 | 18 | 1.0 | 4.0 | 0.00 | 0.00 | 0.00 | 63 | 1018.3 |
| 20260903141525 | 89 | 18 | 2.0 | 4.0 | 0.00 | 0.00 | 0.00 | 64 | 1018.4 |
| 20260903141003 | 88 | 0 | 0.0 | 2.0 | 0.00 | 0.00 | 0.00 | 65 | 1018.3 |
| 20260903140503 | 88 | 51 | 1.0 | 2.0 | 0.00 | 0.00 | 0.00 | 69 | 1018.3 |
| 20260903140004 | 87 | 51 | 1.0 | 3.0 | 0.00 | 0.00 | 0.00 | 69 | 1018.3 |
| 20260903135525 | 86 | 51 | 1.0 | 4.0 | 0.00 | 0.00 | 0.00 | 69 | 1018.2 |
| 20260903135024 | 86 | 67 | 2.0 | 4.0 | 0.00 | 0.00 | 0.00 | 68 | 1018.3 |
| 20260903134504 | 86 | 212 | 1.0 | 2.0 | 0.00 | 0.00 | 0.00 | 72 | 1018.2 |
| 20260903134003 | 85 | 212 | 1.0 | 3.0 | 0.00 | 0.00 | 0.00 | 72 | 1018.3 |
| 20260903133503 | 84 | 212 | 1.0 | 4.0 | 0.00 | 0.00 | 0.00 | 72 | 1018.4 |
| 20260903133025 | 84 | 212 | 2.0 | 4.0 | 0.00 | 0.00 | 0.00 | 74 | 1018.3 |
| 20260903132503 | 84 | 212 | 1.0 | 3.0 | 0.00 | 0.00 | 0.00 | 72 | 1018.3 |
| 20260903132004 | 84 | 212 | 0.0 | 3.0 | 0.00 | 0.00 | 0.00 | 76 | 1018.3 |
| 20260903131504 | 83 | 211 | 0.0 | 2.0 | 0.00 | 0.00 | 0.00 | 76 | 1018.4 |
| 20260903131003 | 82 | 211 | 2.0 | 3.0 | 0.00 | 0.00 | 0.00 | 76 | 1018.4 |
| 20260903130524 | 82 | 211 | 1.0 | 4.0 | 0.00 | 0.00 | 0.00 | 78 | 1018.5 |
| 20260903130004 | 81 | 210 | 2.0 | 4.0 | 0.00 | 0.00 | 0.00 | 79 | 1018.5 |
| 20260903125524 | 80 | 210 | 2.0 | 3.0 | 0.00 | 0.00 | 0.00 | 81 | 1018.5 |
| 20260903125003 | 79 | 210 | 2.0 | 3.0 | 0.00 | 0.00 | 0.00 | 82 | 1018.5 |
| 20260903124503 | 79 | 210 | 2.0 | 3.0 | 0.00 | 0.00 | 0.00 | 83 | 1018.5 |
| 20260903124003 | 78 | 210 | 0.0 | 2.0 | 0.00 | 0.00 | 0.00 | 84 | 1018.5 |
| 20260903123504 | 78 | 210 | 0.0 | 4.0 | 0.00 | 0.00 | 0.00 | 84 | 1018.5 |
| 20260903123004 | 77 | 207 | 2.0 | 4.0 | 0.00 | 0.00 | 0.00 | 86 | 1018.4 |
| 20260903122503 | 77 | 173 | 2.0 | 3.0 | 0.00 | 0.00 | 0.00 | 87 | 1018.5 |
| 20260903122004 | 76 | 155 | 1.0 | 2.0 | 0.00 | 0.00 | 0.00 | 88 | 1018.5 |
| 20260903121524 | 76 | 155 | 0.0 | 2.0 | 0.00 | 0.00 | 0.00 | 89 | 1018.4 |
| 20260903121003 | 76 | 155 | 1.0 | 2.0 | 0.00 | 0.00 | 0.00 | 91 | 1018.4 |
| 20260903120504 | 75 | 0 | 0.0 | 0.0 | 0.00 | 0.00 | 0.00 | 91 | 1018.4 |
| 20260903120004 | 75 | 0 | 0.0 | 1.0 | 0.00 | 0.00 | 0.00 | 91 | 1018.4 |
| 20260903115524 | 75 | 0 | 0.0 | 2.0 | 0.00 | 0.00 | 0.00 | 91 | 1018.4 |
| 20260903115004 | 75 | 155 | 1.0 | 2.0 | 0.00 | 0.00 | 0.00 | 92 | 1018.4 |
| 20260903114525 | 75 | 0 | 0.0 | 0.0 | 0.00 | 0.00 | 0.00 | 92 | 1018.4 |
| 20260903114004 | 75 | 0 | 0.0 | 1.0 | 0.00 | 0.00 | 0.00 | 92 | 1018.3 |
| 20260903113503 | 74 | 155 | 0.0 | 3.0 | 0.00 | 0.00 | 0.00 | 92 | 1018.1 |
| 20260903113004 | 74 | 155 | 1.0 | 5.0 | 0.00 | 0.00 | 0.00 | 92 | 1018.1 |
| 20260903112504 | 74 | 160 | 2.0 | 5.0 | 0.00 | 0.00 | 0.00 | 92 | 1018.1 |
| 20260903112025 | 74 | 170 | 1.0 | 2.0 | 0.00 | 0.00 | 0.00 | 92 | 1018.0 |
| 20260903111503 | 74 | 170 | 0.0 | 3.0 | 0.00 | 0.00 | 0.00 | 92 | 1017.9 |
| 20260903111025 | 74 | 170 | 2.0 | 3.0 | 0.00 | 0.00 | 0.00 | 92 | 1017.9 |
| 20260903110504 | 74 | 170 | 1.0 | 2.0 | 0.00 | 0.00 | 0.00 | 92 | 1017.8 |
| 20260903110004 | 74 | 0 | 0.0 | 2.0 | 0.00 | 0.00 | 0.00 | 92 | 1017.7 |
| 20260903105503 | 74 | 170 | 0.0 | 4.0 | 0.00 | 0.00 | 0.00 | 92 | 1017.7 |
| 20260903105003 | 74 | 170 | 2.0 | 4.0 | 0.00 | 0.00 | 0.00 | 92 | 1017.7 |
| 20260903104504 | 74 | 170 | 2.0 | 3.0 | 0.00 | 0.00 | 0.00 | 92 | 1017.7 |
| 20260903104005 | 74 | 170 | 1.0 | 2.0 | 0.00 | 0.00 | 0.00 | 92 | 1017.6 |
| 20260903103524 | 74 | 170 | 1.0 | 2.0 | 0.00 | 0.00 | 0.00 | 92 | 1017.6 |
| 20260903103004 | 74 | 170 | 0.0 | 2.0 | 0.00 | 0.00 | 0.00 | 92 | 1017.6 |
| 20260903102504 | 74 | 170 | 2.0 | 2.0 | 0.00 | 0.00 | 0.00 | 92 | 1017.6 |
| 20260903102003 | 74 | 170 | 1.0 | 2.0 | 0.00 | 0.00 | 0.00 | 92 | 1017.5 |
| 20260903101504 | 74 | 170 | 0.0 | 2.0 | 0.00 | 0.00 | 0.00 | 92 | 1017.5 |
| 20260903101024 | 74 | 170 | 1.0 | 2.0 | 0.00 | 0.00 | 0.00 | 92 | 1017.5 |